Skip Page Navigation
NASA JPL Caltech
NASA Logo - Jet Propulsion Laboratory + View the NASA Portal
+ Center for Near-Earth Object Studies
JPL Home Earth Solar System Stars & Galaxies Technology
JPL Solar System Dynamics
BODIES ORBITS EPHEMERIDES TOOLS PHYSICAL DATA DISCOVERY FAQ SITE MAP
IMPORTANT: The SSD Announcement email list is now available. Major changes are coming in the near future, including possible hostname and/or URL changes. To be notified of such changes, subscribe to this email list.

Please visit this page for more details.


JPL Small-Body Database Browser
Search: [ help ]  
160530 (1996 TE16)
Classification: Main-belt Asteroid          SPK-ID: 2160530
Ephemeris | Orbit Diagram | Orbital Elements | Mission Design | Physical Parameters | Discovery Circumstances | Close-Approach Data ]

[ show orbit diagram ]
Orbital Elements at Epoch 2458600.5 (2019-Apr-27.0) TDB
Reference: JPL 18 (heliocentric ecliptic J2000)
 Element Value Uncertainty (1-sigma)   Units 
e .03842821128683534 4.3814e-08  
a 2.761261453308526 2.2056e-08 au
q 2.655151114762592 1.232e-07 au
i 5.158272678808036 4.5144e-06 deg
node 275.4538392515736 6.3361e-05 deg
peri 119.4159430940965 9.9539e-05 deg
M 298.35309354634 7.5422e-05 deg
tp 2458887.491153196517
(2020-Feb-07.99115320)
0.0003515 TDB
period 1675.944846127999
4.59
2.008e-05
5.498e-08
d
yr
n .2148042048231612 2.5736e-09 deg/d
Q 2.86737179185446 2.2903e-08 au
  Orbit Determination Parameters
   # obs. used (total)      425  
   data-arc span      8422 days (23.06 yr)  
   first obs. used      1996-10-04  
   last obs. used      2019-10-26  
   planetary ephem.      DE431  
   SB-pert. ephem.      SB431-N16  
   condition code      0  
   norm. resid. RMS      .53988  
   source      ORB  
   producer      Otto Matic  
   solution date      2019-Nov-07 18:41:12  

Additional Information
 Earth MOID = 1.66583 au 
 Jupiter MOID = 2.32345 au 
 T_jup = 3.334 
[ show covariance matrix ]

Ephemeris | Orbit Diagram | Orbital Elements | Mission Design | Physical Parameters | Discovery Circumstances | Close-Approach Data ]

Physical Parameter Table
Parameter Symbol Value Units Sigma Reference Notes
absolute magnitude H 15.8   n/a MPO310239  

160530 (1996 TE16)          Discovered 1996-Oct-04 by Spacewatch at Kitt Peak
Reference: 20070828/Numbers.arcLast Updated: 2007-08-30

[ show close-approach data ]
Alternate Designations
 1996 TE16 = 2007 AP22 
Ephemeris | Orbit Diagram | Orbital Elements | Mission Design | Physical Parameters | Discovery Circumstances | Close-Approach Data ]
ABOUT SSD CREDITS/AWARDS PRIVACY/COPYRIGHT GLOSSARY LINKS
FirstGov
(server date/time)  
NASA Home Page
Site Manager:   Ryan S. Park
Webmaster  Alan B. Chamberlin